Retour au catalogue

BREEZE-M DEB

LostHEO
NORAD 34263·DEBRIS·🇷🇺 Russia

Lancé Feb 28, 2006 depuis Baikonur Cosmodrome

Loading…

Prochains Passages (prochaines 24 heures)

TLE

PériméSource: Space-Track

Époque: Jun 25, 2026, 05:05 UTC

1 34263U 06006CE  26176.21210397  .00004750  00000-0  29705-2 0  9998
2 34263  51.5572 111.6352 4298929 247.8082  61.9268  6.64474988253837

Suivez BREEZE-M DEB en temps réel avec AllMySat

Download on the App Store